Weather History for West Palm Beach, FL

Change the Weather History Date:

Wednesday, January 1, 2014

  Actual Average Record
Temperature  
Mean Temperature 78 °F 66 °F  
Max Temperature 82 °F 75 °F 85 °F (1996)
Min Temperature 74 °F 57 °F 35 °F (1918)
Degree Days  
Heating Degree Days 0 3  
Month to date heating degree days 0 3  
Since 1 July heating degree days 4 74  
Cooling Degree Days 13 4  
Month to date cooling degree days 13 4  
Year to date cooling degree days 13 4  
Growing Degree Days 28 (Base 50)    
Moisture  
Dew Point 67 °F    
Average Humidity 74    
Maximum Humidity 87    
Minimum Humidity 60    
Precipitation  
Precipitation T in 0.11 in 1.64 in (1909)
Month to date precipitation T 0.11  
Year to date precipitation T 0.11  
Snow  
Snow 0.00 in - - ()
Month to date snowfall 0.0  
Since 1 July snowfall 0.0  
Snow Depth 0.00 in    
Sea Level Pressure  
Sea Level Pressure 30.13 in    
Wind  
Wind Speed 13 mph (ESE)    
Max Wind Speed 22 mph    
Max Gust Speed 25 mph    
Visibility 10 miles    
Events      
T = Trace of Precipitation, MM = Missing Value Source: NWS Daily Summary

Daily Weather History Graph

Daily Weather History Graph

Search for Another Location

Airport:

Trip Planner

Search our weather history database for the weather conditions in past years. The results will help you decide how hot, cold, wet, or windy it might be!

Date:

Astronomy

Jan. 01, 2014 Rise Set
Actual Time 7:09 AM EST 5:39 PM EST
Civil Twilight 6:43 AM EST 6:04 PM EST
Nautical Twilight 6:14 AM EST 6:33 PM EST
Astronomical Twilight 5:46 AM EST 7:01 PM EST
Moon 7:03 AM EST (1/1) 6:15 PM EST (1/1)
Length of Visible Light 11h 20m
Length of Day
10h 30m
New Moon, 0% of the Moon is Illuminated
Jan 1
New Moon
Jan 7
First Quarter
Jan 15
Full
Jan 24
Last Quarter
Jan 30
New

Hourly Weather History & Observations

Time (EST) Temp. Heat Index Dew Point Humidity Pressure Visibility Wind Dir Wind Speed Gust Speed Precip Events Conditions
12:53 AM 75.0 °F - 62.1 °F 64% 30.19 in 10.0 mi ENE 15.0 mph - N/A   Overcast
1:53 AM 75.0 °F - 61.0 °F 62% 30.18 in 10.0 mi East 15.0 mph - 0.00 in   Overcast
2:31 AM 73.4 °F - 62.6 °F 69% 30.17 in 10.0 mi East 17.3 mph - N/A   Overcast
2:53 AM 73.9 °F - 64.9 °F 73% 30.17 in 10.0 mi East 17.3 mph 24.2 mph N/A   Overcast
3:15 AM 73.4 °F - 64.4 °F 73% 30.17 in 10.0 mi East 11.5 mph - N/A   Overcast
3:37 AM 73.4 °F - 64.4 °F 73% 30.16 in 10.0 mi East 10.4 mph - N/A   Overcast
3:53 AM 75.0 °F - 64.0 °F 69% 30.16 in 10.0 mi East 15.0 mph 20.7 mph N/A   Overcast
4:53 AM 75.0 °F - 63.0 °F 66% 30.16 in 10.0 mi East 13.8 mph - N/A   Overcast
5:53 AM 75.0 °F - 64.0 °F 69% 30.16 in 10.0 mi East 12.7 mph - N/A   Overcast
6:09 AM 75.2 °F - 64.4 °F 69% 30.16 in 10.0 mi East 16.1 mph - N/A   Overcast
6:53 AM 75.0 °F - 64.9 °F 71% 30.16 in 10.0 mi East 15.0 mph 24.2 mph N/A   Overcast
7:53 AM 75.9 °F - 66.9 °F 74% 30.18 in 10.0 mi East 16.1 mph - N/A   Overcast
8:53 AM 77.0 °F - 66.9 °F 71% 30.19 in 10.0 mi ESE 16.1 mph - N/A   Overcast
9:53 AM 78.1 °F - 68.0 °F 71% 30.19 in 10.0 mi ESE 17.3 mph - N/A   Overcast
10:53 AM 81.0 °F 84.1 °F 69.1 °F 67% 30.18 in 10.0 mi ESE 17.3 mph - N/A   Mostly Cloudy
11:53 AM 80.1 °F 82.9 °F 69.1 °F 69% 30.15 in 10.0 mi ESE 17.3 mph 24.2 mph N/A   Mostly Cloudy
12:08 PM 78.8 °F - 69.8 °F 74% 30.15 in 10.0 mi ESE 15.0 mph - N/A   Mostly Cloudy
12:53 PM 81.0 °F 84.4 °F 70.0 °F 69% 30.12 in 10.0 mi ESE 16.1 mph - N/A   Mostly Cloudy
1:27 PM 80.6 °F 83.9 °F 69.8 °F 70% 30.11 in 10.0 mi ESE 17.3 mph 23.0 mph N/A   Mostly Cloudy
1:53 PM 82.0 °F 85.5 °F 69.1 °F 65% 30.09 in 10.0 mi ESE 17.3 mph - N/A   Mostly Cloudy
2:53 PM 80.1 °F 83.2 °F 70.0 °F 71% 30.08 in 10.0 mi SE 12.7 mph 20.7 mph N/A   Mostly Cloudy
3:53 PM 80.1 °F 83.2 °F 70.0 °F 71% 30.07 in 10.0 mi SSE 16.1 mph 21.9 mph N/A   Mostly Cloudy
4:53 PM 79.0 °F - 69.1 °F 72% 30.07 in 10.0 mi SSE 10.4 mph - N/A   Mostly Cloudy
5:53 PM 78.1 °F - 69.1 °F 74% 30.07 in 10.0 mi SSE 8.1 mph - N/A   Mostly Cloudy
6:53 PM 77.0 °F - 70.0 °F 79% 30.07 in 10.0 mi SE 6.9 mph - N/A   Scattered Clouds
7:53 PM 77.0 °F - 70.0 °F 79% 30.08 in 10.0 mi SE 8.1 mph - N/A   Partly Cloudy
8:53 PM 77.0 °F - 70.0 °F 79% 30.08 in 10.0 mi SSE 8.1 mph - N/A   Partly Cloudy
9:53 PM 75.9 °F - 70.0 °F 82% 30.07 in 10.0 mi SSE 8.1 mph - N/A   Partly Cloudy
10:53 PM 75.9 °F - 71.1 °F 85% 30.06 in 10.0 mi SSE 8.1 mph - N/A   Partly Cloudy
11:53 PM 75.9 °F - 71.1 °F 85% 30.05 in 10.0 mi SSE 9.2 mph - N/A   Partly Cloudy